Location: Melbourne
(37.8170°S, 144.9670°E)
Time: 11:31:34
(UTC+11:00)

Explorer 11/Cluster Stage 4 - Visible Passes

Search period start: 28 February 2015 00:00
Search period end: 10 March 2015 00:00
Orbit: 468 x 1276 km, 28.8° (Epoch: 26 February)

Date Brightness Start Highest point End Pass type
(mag) Time Alt. Az. Time Alt. Az. Time Alt. Az.
28 Feb 8.9 03:31:35 22° ENE 03:31:35 22° ENE 03:34:26 10° ENE visible
28 Feb 7.8 05:13:55 33° NW 05:16:32 42° N 05:23:03 10° ENE visible
01 Mar 9.1 03:24:01 21° ENE 03:24:01 21° ENE 03:26:28 10° ENE visible
01 Mar 7.8 05:06:20 36° NW 05:08:22 43° N 05:15:05 10° ENE visible
02 Mar 9.2 03:16:30 18° ENE 03:16:30 18° ENE 03:18:28 10° ENE visible
02 Mar 7.8 04:58:49 40° NNW 05:00:11 43° N 05:07:03 10° ENE visible
03 Mar 9.4 03:09:02 16° ENE 03:09:02 16° ENE 03:10:24 10° ENE visible
03 Mar 7.8 04:51:22 41° NNW 04:51:59 42° N 04:58:58 10° ENE visible
03 Mar 8.4 06:34:22 10° WNW 06:40:40 26° NNW 06:46:09 10° NNE visible
04 Mar 9.6 03:01:40 13° ENE 03:01:40 13° ENE 03:02:18 10° ENE visible
04 Mar 7.9 04:44:01 41° N 04:44:01 41° N 04:50:50 10° NE visible
04 Mar 8.5 06:26:20 10° WNW 06:32:26 24° NNW 06:37:49 10° NNE visible
05 Mar 8.1 04:36:44 37° N 04:36:44 37° N 04:42:39 10° NE visible
05 Mar 8.6 06:19:04 12° WNW 06:24:09 21° NNW 06:29:23 10° NNE visible
06 Mar 8.4 04:29:34 31° NNE 04:29:34 31° NNE 04:34:23 10° NE visible
06 Mar 8.8 06:11:55 14° WNW 06:15:52 19° NNW 06:20:48 10° NNE visible
07 Mar 8.8 04:22:30 25° NNE 04:22:30 25° NNE 04:26:03 10° NE visible
07 Mar 8.9 06:04:51 15° NW 06:07:34 17° NNW 06:12:03 10° N visible
08 Mar 9.1 04:15:31 18° NNE 04:15:31 18° NNE 04:17:38 10° NE visible
08 Mar 9.0 05:57:53 14° NW 05:59:16 15° NNW 06:03:04 10° N visible
09 Mar 9.5 04:08:37 12° NE 04:08:37 12° NE 04:09:09 10° NE visible
09 Mar 9.1 05:50:59 12° NNW 05:50:59 12° NNW 05:53:42 10° N visible
